Torna al catalogo

ICEYE-X7

AttivoScienzaSSO
NORAD 46496·PAYLOAD·🇫🇮 Finland

Lanciato Sep 28, 2020 da Plesetsk Cosmodrome

Loading…

Prossimi Passaggi (prossime 24 ore)

TLE

AggiornatoSource: Space-Track

Epoca: Sep 14, 2026, 22:16 UTC

1 46496U 20068L   26257.92818067  .00010424  00000-0  32733-3 0  9990
2 46496  97.7596 228.6935 0007950  24.6340 335.5279 15.33189748328533

Traccia ICEYE-X7 in tempo reale con AllMySat

Download on the App Store